Location: Torrington
(42.0650°N, 104.1810°W)
Time: 03:02:59
(UTC-07:00)

Amateur Radio Satellites - All Passes

Search period start: 21 December 2014 02:32
Search period end: 22 December 2014 02:32
Location: Torrington, 42.0650°N, 104.1810°W

Satellite Date Start Highest point End Downlink Frequencies (MHz)
Time Altitude Azimuth
MOZHAYETS 4 21 Dec 02:42:56 02:45:13 14° 62° (ENE) 02:47:30
VERMONT LUNAR 21 Dec 02:43:14 02:46:16 27° 156° (SSE) 02:49:19 437.305
HORYU 2 21 Dec 02:50:26 02:54:38 36° 98° (E) 02:58:47 437.375
PHONESAT 2.4 21 Dec 02:59:11 03:02:12 25° 155° (SSE) 03:05:13 2401.200-2431.200
STARS 21 Dec 03:01:36 03:04:51 20° 266° (W) 03:08:06 437.465
Oscar 19 21 Dec 03:02:41 03:06:08 18° 298° (WNW) 03:09:36 437.125/150
KKS-1 21 Dec 03:07:53 03:09:44 12° 270° (W) 03:11:36 437.445
Gurwin Techsat 1B 21 Dec 03:15:45 03:20:55 53° 289° (WNW) 03:26:03 435.225
ITAMSAT 1 21 Dec 03:18:31 03:23:04 32° 293° (WNW) 03:27:35 435.822/435.867
SO-50 21 Dec 03:24:12 03:25:23 11° 31° (NNE) 03:26:35 436.795
AO-7 21 Dec 03:44:54 03:52:55 47° 100° (E) 04:00:50 29.400- 29.500
AIST 1 21 Dec 03:50:19 03:54:26 47° 267° (W) 03:58:31
GONETS M04 21 Dec 03:51:58 03:57:54 21° 78° (ENE) 04:03:50
MOZHAYETS 4 21 Dec 04:17:13 04:21:51 70° 259° (WSW) 04:26:31
JAS-2 21 Dec 04:18:01 04:22:45 28° 93° (E) 04:27:11 435.910
VERMONT LUNAR 21 Dec 04:20:48 04:24:18 63° 173° (S) 04:27:48 437.305
HORYU 2 21 Dec 04:27:33 04:31:05 23° 294° (WNW) 04:34:36 437.375
STRAND 1 21 Dec 04:29:22 04:31:51 14° 59° (ENE) 04:34:21 437.568
PHONESAT 2.4 21 Dec 04:36:59 04:40:34 61° 171° (S) 04:44:09 2401.200-2431.200
PRISM 21 Dec 04:50:43 04:54:42 41° 71° (ENE) 04:58:41 437.425
SO-50 21 Dec 05:02:22 05:07:07 48° 51° (NE) 05:11:52 436.795
CUTE-I 21 Dec 05:11:50 05:15:22 18° 92° (E) 05:18:52 437.470
AO-7 21 Dec 05:37:53 05:45:34 42° 299° (WNW) 05:53:14 29.400- 29.500
CUBESAT XI-V 21 Dec 05:41:46 05:46:25 68° 75° (ENE) 05:51:03 437.345
GONETS M04 21 Dec 05:44:43 05:53:34 84° 278° (W) 06:02:28
VERMONT LUNAR 21 Dec 05:59:01 06:02:30 59° 190° (S) 06:05:59 437.305
JAS-2 21 Dec 06:02:50 06:08:00 37° 293° (WNW) 06:12:46 435.910
STRAND 1 21 Dec 06:05:14 06:10:21 81° 256° (WSW) 06:15:29 437.568
PHONESAT 2.4 21 Dec 06:15:33 06:19:08 62° 188° (S) 06:22:44 2401.200-2431.200
Cubesat XI-IV 21 Dec 06:17:22 06:22:42 72° 103° (ESE) 06:28:00 437.490
PRISM 21 Dec 06:27:37 06:30:24 17° 267° (W) 06:33:12 437.425
SO-50 21 Dec 06:43:34 06:47:23 23° 248° (WSW) 06:51:11 436.795
CUTE-I 21 Dec 06:50:35 06:55:49 59° 288° (WNW) 07:01:01 437.470
CUBESAT XI-V 21 Dec 07:22:22 07:24:18 12° 271° (W) 07:26:14 437.345
VERMONT LUNAR 21 Dec 07:37:38 07:40:29 23° 206° (SSW) 07:43:19 437.305
GONETS M04 21 Dec 07:46:11 07:51:51 18° 300° (WNW) 07:57:32
SEEDS 21 Dec 07:52:47 07:54:48 13° 90° (E) 07:56:48 437.485
PHONESAT 2.4 21 Dec 07:54:26 07:57:31 26° 204° (SSW) 08:00:36 2401.200-2431.200
CUTE 1.7 + AOD 2 21 Dec 07:56:25 07:59:15 17° 92° (E) 08:02:04 437.475
Cubesat XI-IV 21 Dec 07:59:00 08:02:11 16° 300° (WNW) 08:05:22 437.490
BRITE-PL 21 Dec 08:14:52 08:19:10 33° 97° (E) 08:23:46 437.365/2234.400
MaSat-1 21 Dec 08:23:11 08:25:28 63° 114° (ESE) 08:27:40 437.345
HO-68 21 Dec 08:24:46 08:31:32 44° 99° (E) 08:38:15 435.675
DANDE 21 Dec 08:29:33 08:31:38 14° 80° (E) 08:34:02 436.750
Oscar 11 21 Dec 08:35:28 08:37:53 15° 91° (E) 08:40:18 145.826/435.025
GOMX 1 21 Dec 08:37:52 08:42:25 41° 98° (E) 08:47:14 467.674
UNISAT 6 21 Dec 08:43:38 08:46:44 19° 64° (ENE) 08:49:53 437.425
AAUSAT CUBESAT 2 21 Dec 08:44:27 08:48:22 35° 97° (E) 08:52:15 437.432
UKube-1 21 Dec 08:44:56 08:46:51 13° 91° (E) 08:48:45 .
QB50P2 21 Dec 08:49:57 08:52:08 14° 63° (ENE) 08:54:19 145.880/145.840
POLYITAN 1 21 Dec 08:58:25 09:01:09 17° 65° (ENE) 09:03:54 437.675
CUBEBUG 2 21 Dec 08:59:30 09:02:49 19° 93° (E) 09:06:10 437.445
DOVE 4 21 Dec 08:59:55 09:04:36 51° 100° (E) 09:09:32 437.250
NANOSAT C BR1 21 Dec 08:59:56 09:02:42 17° 65° (ENE) 09:05:29 145.865
CANX-2 21 Dec 09:00:21 09:04:42 86° 283° (WNW) 09:09:01 2200.000
ZACube-1 21 Dec 09:07:21 09:10:11 16° 91° (E) 09:13:02 437.345
QB50P1 21 Dec 09:13:45 09:17:08 24° 67° (ENE) 09:20:33 145.935-145.965
ANTELSAT 21 Dec 09:14:27 09:18:31 38° 70° (ENE) 09:22:41 437.575/2403.000
CUSAT 1 21 Dec 09:15:02 09:18:39 64° 95° (E) 09:23:34 437.405
CINEMA 3 21 Dec 09:20:03 09:24:40 49° 99° (E) 09:29:27 145.822/145.860
COMPASS 1 21 Dec 09:20:06 09:24:23 78° 284° (WNW) 09:28:37 437.405
SEEDS 21 Dec 09:26:45 09:30:58 55° 286° (WNW) 09:35:08 437.485
CUTE 1.7 + AOD 2 21 Dec 09:31:17 09:35:23 43° 288° (WNW) 09:39:27 437.475
DELFI C3 21 Dec 09:32:13 09:36:14 50° 99° (E) 09:40:13 145.870
FUNcube-1 21 Dec 09:32:58 09:36:57 29° 96° (E) 09:40:56 145.935
O/OREOS (USA 219) 21 Dec 09:34:30 09:38:41 36° 61° (ENE) 09:42:53 437.305
50 SAT 21 Dec 09:34:53 09:36:52 13° 91° (E) 09:38:51 437.505
UWE-3 21 Dec 09:35:24 09:39:41 37° 97° (E) 09:44:01 435.000/436.395/437.385
POPSAT HIP 1 21 Dec 09:41:46 09:45:49 48° 72° (ENE) 09:49:53 437.405
DX 1 21 Dec 09:48:47 09:53:08 67° 102° (ESE) 09:57:27 434.975-435.025
TIGRISAT 21 Dec 09:49:09 09:53:30 89° 79° (ENE) 09:58:00 435.000
BRITE-PL 21 Dec 09:53:37 09:57:35 28° 291° (WNW) 10:01:48 437.365/2234.400
AISAT 21 Dec 09:54:36 09:58:21 26° 96° (E) 10:02:05 437.250
YUBILEINY 21 Dec 09:59:43 10:07:54 43° 73° (ENE) 10:16:02 435.215
CUBEBUG 1 21 Dec 10:00:13 10:01:04 11° 89° (E) 10:01:54 437.445
HUMSAT D 21 Dec 10:01:22 10:05:20 34° 97° (E) 10:09:17 437.325/437.525
BUGSAT 1 21 Dec 10:04:35 10:08:40 70° 75° (ENE) 10:12:43 437.445
DUCHIFAT 1 21 Dec 10:09:12 10:13:24 83° 257° (WSW) 10:17:38 145.980
Oscar 11 21 Dec 10:10:07 10:14:22 51° 287° (WNW) 10:18:35 145.826/435.025
DANDE 21 Dec 10:11:01 10:14:23 36° 290° (WNW) 10:18:50 436.750
HO-68 21 Dec 10:12:40 10:19:07 38° 297° (WNW) 10:25:33 435.675
RS-15 21 Dec 10:14:46 10:23:47 31° 105° (ESE) 10:32:46 29.354- 29.394
GOMX 1 21 Dec 10:16:35 10:20:19 23° 293° (WNW) 10:24:14 467.674
UNISAT 6 21 Dec 10:19:03 10:23:11 42° 262° (W) 10:27:28 437.425
UKube-1 21 Dec 10:19:06 10:23:22 58° 287° (WNW) 10:27:37 .
AAUSAT CUBESAT 2 21 Dec 10:20:39 10:23:48 21° 294° (WNW) 10:26:56 437.432
QB50P2 21 Dec 10:23:27 10:27:35 55° 260° (W) 10:31:45 145.880/145.840
POLYITAN 1 21 Dec 10:32:45 10:36:45 43° 261° (W) 10:40:48 437.675
NANOSAT C BR1 21 Dec 10:34:16 10:38:15 42° 261° (W) 10:42:17 145.865
CUBEBUG 2 21 Dec 10:35:16 10:39:42 45° 288° (WNW) 10:44:12 437.445
DOVE 4 21 Dec 10:38:40 10:42:02 19° 294° (WNW) 10:45:31 437.250
ZACube-1 21 Dec 10:42:25 10:46:49 51° 287° (WNW) 10:51:15 437.345
VELOX 1 21 Dec 10:46:56 10:51:23 86° 284° (WNW) 10:55:48 145.980
QB50P1 21 Dec 10:49:14 10:52:54 29° 264° (W) 10:56:36 145.935-145.965
ANTELSAT 21 Dec 10:52:15 10:55:28 20° 267° (W) 10:58:45 437.575/2403.000
ESTCUBE 1 21 Dec 10:52:26 10:56:45 44° 99° (E) 11:01:01 437.505/2401.250
CINEMA 3 21 Dec 10:58:10 11:01:32 20° 295° (WNW) 11:04:59 145.822/145.860
TISAT 1 21 Dec 10:58:35 10:59:53 11° 90° (E) 11:01:12 437.305
CUSAT 1 21 Dec 11:01:21 11:02:49 11° 304° (NW) 11:04:24 437.405
Oscar 19 21 Dec 11:03:50 11:05:59 13° 58° (ENE) 11:08:08 437.125/150
SPROUT 21 Dec 11:04:01 11:05:55 13° 90° (E) 11:07:50 437.525
50 SAT 21 Dec 11:08:20 11:12:23 52° 287° (WNW) 11:16:26 437.505
DELFI C3 21 Dec 11:08:49 11:11:05 15° 296° (WNW) 11:13:20 145.870
FUNcube-1 21 Dec 11:09:20 11:13:12 28° 292° (WNW) 11:17:06 145.935
UWE-3 21 Dec 11:12:24 11:16:00 23° 293° (WNW) 11:19:40 435.000/436.395/437.385
O/OREOS (USA 219) 21 Dec 11:14:22 11:17:52 22° 258° (WSW) 11:21:22 437.305
POPSAT HIP 1 21 Dec 11:19:39 11:21:59 14° 269° (W) 11:24:19 437.405
DX 1 21 Dec 11:26:56 11:28:49 13° 299° (WNW) 11:30:42 434.975-435.025
AISAT 21 Dec 11:31:06 11:34:56 29° 292° (WNW) 11:38:47 437.250
CUBEBUG 1 21 Dec 11:33:34 11:37:54 70° 285° (WNW) 11:42:12 437.445
HUMSAT D 21 Dec 11:37:33 11:40:56 23° 293° (WNW) 11:44:19 437.325/437.525
YUBILEINY 21 Dec 11:56:40 12:04:38 43° 273° (W) 12:12:37 435.215
BEESAT 3 21 Dec 11:57:33 12:00:16 17° 111° (ESE) 12:03:02 437.485
SWISSCUBE 21 Dec 12:07:56 12:09:18 11° 89° (E) 12:10:39 437.505
ITUPSAT 1 21 Dec 12:09:43 12:10:04 10° 88° (E) 12:10:26 437.325
RS-15 21 Dec 12:24:12 12:35:07 73° 306° (NW) 12:46:09 29.354- 29.394
ESTCUBE 1 21 Dec 12:30:09 12:33:18 19° 295° (WNW) 12:36:26 437.505/2401.250
BEESAT 21 Dec 12:31:04 12:34:24 19° 93° (E) 12:37:43 436.000
TISAT 1 21 Dec 12:31:56 12:36:07 63° 286° (WNW) 12:40:17 437.305
ISS 21 Dec 12:35:26 12:38:17 27° 136° (SE) 12:41:08 145.825
BEESAT 2 21 Dec 12:36:53 12:40:44 40° 117° (ESE) 12:44:39 435.950
SPROUT 21 Dec 12:38:08 12:42:22 57° 286° (WNW) 12:46:35 437.525
Oscar 19 21 Dec 12:39:24 12:44:32 89° 256° (WSW) 12:49:45 437.125/150
PCSat 21 Dec 12:41:24 12:46:05 31° 109° (ESE) 12:50:47 145.827
AO-7 21 Dec 12:56:32 13:01:01 16° 46° (NE) 13:05:30 29.400- 29.500
ITAMSAT 1 21 Dec 12:57:19 13:02:19 52° 71° (ENE) 13:07:20 435.822/435.867
Gurwin Techsat 1B 21 Dec 12:58:05 13:02:47 33° 67° (ENE) 13:07:29 435.225
KKS-1 21 Dec 13:21:25 13:23:02 12° 90° (E) 13:24:40 437.445
M-CUBED/EXP-1 PRIME 21 Dec 13:21:25 13:24:27 19° 96° (E) 13:27:18 437.505
BEESAT 3 21 Dec 13:34:08 13:38:05 46° 308° (NW) 13:42:07 437.485
SWISSCUBE 21 Dec 13:42:56 13:47:42 77° 285° (WNW) 13:52:26 437.505
ITUPSAT 1 21 Dec 13:43:46 13:48:34 83° 285° (WNW) 13:53:19 437.325
AIST 2 21 Dec 13:46:00 13:50:15 82° 303° (WNW) 13:54:34 435.215
HORYU 2 21 Dec 13:49:28 13:53:33 36° 69° (ENE) 13:57:39 437.375
BEESAT 21 Dec 14:07:55 14:12:29 47° 289° (WNW) 14:17:01 436.000
ISS 21 Dec 14:11:37 14:14:46 40° 333° (NNW) 14:17:55 145.825
BEESAT 2 21 Dec 14:15:48 14:19:08 23° 315° (NW) 14:22:30 435.950
Oscar 19 21 Dec 14:23:54 14:24:35 10° 273° (W) 14:25:16 437.125/150
PCSat 21 Dec 14:24:16 14:29:21 40° 308° (NW) 14:34:27 145.827
AUBIESAT-1 21 Dec 14:29:00 14:33:21 83° 289° (WNW) 14:37:17 437.475
JAS-2 21 Dec 14:30:46 14:35:38 19° 59° (ENE) 14:40:13 435.910
Gurwin Techsat 1B 21 Dec 14:37:59 14:42:42 32° 264° (W) 14:47:27 435.225
ITAMSAT 1 21 Dec 14:38:24 14:42:06 20° 267° (W) 14:45:48 435.822/435.867
RS-15 21 Dec 14:40:46 14:49:46 28° 335° (NNW) 14:58:57 29.354- 29.394
AO-7 21 Dec 14:44:02 14:52:12 65° 67° (ENE) 15:00:27 29.400- 29.500
STARS 21 Dec 14:49:47 14:54:14 72° 102° (ESE) 14:58:40 437.465
M-CUBED/EXP-1 PRIME 21 Dec 14:55:36 14:59:41 38° 295° (WNW) 15:03:25 437.505
KKS-1 21 Dec 14:55:40 15:00:07 67° 286° (WNW) 15:04:33 437.445
ITUPSAT 1 21 Dec 15:25:09 15:25:39 10° 302° (WNW) 15:26:09 437.325
HORYU 2 21 Dec 15:26:50 15:30:18 22° 266° (W) 15:33:47 437.375
AIST 2 21 Dec 15:27:33 15:29:34 13° 323° (NW) 15:31:37 435.215
ISS 21 Dec 15:49:48 15:52:00 16° 352° (N) 15:54:12 145.825
GONETS M04 21 Dec 15:54:45 16:03:15 51° 75° (ENE) 16:11:37
Cubesat XI-IV 21 Dec 16:02:25 16:05:48 17° 61° (ENE) 16:09:11 437.490
JAS-2 21 Dec 16:12:16 16:19:56 90° 256° (WSW) 16:26:55 435.910
MOZHAYETS 4 21 Dec 16:12:37 16:16:33 27° 95° (E) 16:20:27
AIST 1 21 Dec 16:19:52 16:24:15 84° 277° (W) 16:28:38
STARS 21 Dec 16:28:19 16:30:07 12° 299° (WNW) 16:31:55 437.465
CUTE-I 21 Dec 16:33:50 16:38:28 31° 66° (ENE) 16:43:06 437.470
AO-7 21 Dec 16:38:35 16:45:29 29° 265° (W) 16:52:29 29.400- 29.500
RS-15 21 Dec 16:58:57 17:07:14 23° 11° (NNE) 17:15:42 29.354- 29.394
ISS 21 Dec 17:27:05 17:29:30 19° 13° (NNE) 17:31:55 145.825
CUBESAT XI-V 21 Dec 17:39:31 17:42:24 16° 91° (E) 17:45:17 437.345
Cubesat XI-IV 21 Dec 17:40:02 17:45:20 68° 258° (WSW) 17:50:39 437.490
MOZHAYETS 4 21 Dec 17:49:42 17:53:45 31° 291° (WNW) 17:57:45
GONETS M04 21 Dec 17:52:04 17:59:44 36° 275° (W) 18:07:20
MaSat-1 21 Dec 17:52:35 17:54:59 68° 244° (WSW) 17:57:30 437.345
JAS-2 21 Dec 18:00:58 18:05:34 17° 271° (W) 18:09:58 435.910
PRISM 21 Dec 18:08:40 18:12:48 66° 102° (ESE) 18:16:54 437.425
CUSAT 1 21 Dec 18:10:45 18:14:58 15° 60° (ENE) 18:19:24 437.405
CUTE-I 21 Dec 18:13:38 18:18:26 34° 263° (W) 18:23:16 437.470
STRAND 1 21 Dec 18:15:43 18:20:17 33° 97° (E) 18:24:50 437.568
SEEDS 21 Dec 18:47:12 18:48:16 11° 61° (ENE) 18:49:21 437.485
CUTE 1.7 + AOD 2 21 Dec 18:50:57 18:53:11 14° 63° (ENE) 18:55:26 437.475
HO-68 21 Dec 18:54:01 19:00:21 35° 62° (ENE) 19:06:41 435.675
ISS 21 Dec 19:03:19 19:06:34 63° 32° (NNE) 19:09:49 145.825
DANDE 21 Dec 19:06:29 19:13:13 32° 70° (ENE) 19:20:38 436.750
RS-15 21 Dec 19:12:36 19:23:20 48° 43° (NE) 19:34:29 29.354- 29.394
CUBESAT XI-V 21 Dec 19:15:40 19:20:08 50° 288° (WNW) 19:24:33 437.345
SO-50 21 Dec 19:20:18 19:22:15 13° 107° (ESE) 19:24:14 436.795
BRITE-PL 21 Dec 19:27:14 19:31:01 35° 71° (ENE) 19:34:48 437.365/2234.400
Oscar 11 21 Dec 19:31:42 19:33:44 13° 62° (ENE) 19:35:47 145.826/435.025
AAUSAT CUBESAT 2 21 Dec 19:36:29 19:40:01 27° 69° (ENE) 19:43:35 437.432
UKube-1 21 Dec 19:41:09 19:43:08 13° 61° (ENE) 19:45:06 .
PRISM 21 Dec 19:46:17 19:47:47 12° 299° (WNW) 19:49:15 437.425
GOMX 1 21 Dec 19:47:27 19:51:20 41° 72° (ENE) 19:55:16 467.674
CUSAT 1 21 Dec 19:51:29 19:59:16 67° 78° (ENE) 20:07:45 437.405
CANX-2 21 Dec 19:53:42 19:57:56 71° 75° (ENE) 20:02:14 2200.000
STRAND 1 21 Dec 19:54:58 19:59:24 31° 293° (WNW) 20:03:48 437.568
CUBEBUG 2 21 Dec 19:59:34 20:02:07 16° 64° (ENE) 20:04:42 437.445
ZACube-1 21 Dec 20:05:19 20:07:21 13° 62° (ENE) 20:09:23 437.345
DOVE 4 21 Dec 20:06:54 20:10:53 49° 73° (ENE) 20:14:58 437.250
COMPASS 1 21 Dec 20:11:56 20:16:09 76° 76° (ENE) 20:20:25 437.405
BEESAT 3 21 Dec 20:16:11 20:18:55 17° 41° (NE) 20:21:37 437.485
SEEDS 21 Dec 20:19:13 20:23:28 76° 258° (WSW) 20:27:46 437.485
DELFI C3 21 Dec 20:21:20 20:25:03 34° 70° (ENE) 20:28:48 145.870
CINEMA 3 21 Dec 20:22:59 20:26:56 43° 72° (ENE) 20:31:00 145.822/145.860
CUTE 1.7 + AOD 2 21 Dec 20:24:26 20:28:38 57° 260° (W) 20:32:53 437.475
FUNcube-1 21 Dec 20:30:07 20:33:27 24° 67° (ENE) 20:36:52 145.935
AIST 2 21 Dec 20:30:54 20:32:38 12° 36° (NE) 20:34:21 435.215
UWE-3 21 Dec 20:33:44 20:37:24 30° 69° (ENE) 20:41:10 435.000/436.395/437.385
ISS 21 Dec 20:40:46 20:42:49 16° 228° (SW) 20:44:51 145.825
HO-68 21 Dec 20:40:57 20:47:50 48° 260° (W) 20:54:44 435.675
DX 1 21 Dec 20:44:49 20:49:05 61° 73° (ENE) 20:53:23 434.975-435.025
DANDE 21 Dec 20:49:21 20:57:02 64° 265° (W) 21:05:36 436.750
AISAT 21 Dec 20:53:32 20:57:12 26° 67° (ENE) 21:00:52 437.250
HUMSAT D 21 Dec 20:54:35 20:58:00 25° 68° (ENE) 21:01:28 437.325/437.525
BEESAT 2 21 Dec 20:56:34 21:00:21 31° 49° (NE) 21:04:05 435.950
SO-50 21 Dec 20:57:35 21:02:07 74° 305° (NW) 21:06:49 436.795
CUBEBUG 1 21 Dec 20:57:44 20:58:46 11° 61° (ENE) 20:59:49 437.445
Oscar 11 21 Dec 21:05:05 21:09:22 63° 259° (W) 21:13:42 145.826/435.025
BRITE-PL 21 Dec 21:06:49 21:09:42 18° 267° (W) 21:12:35 437.365/2234.400
AAUSAT CUBESAT 2 21 Dec 21:12:04 21:15:37 26° 265° (W) 21:19:12 437.432
UKube-1 21 Dec 21:14:27 21:18:45 65° 258° (WSW) 21:23:04 .
RS-15 21 Dec 21:25:07 21:36:03 58° 247° (WSW) 21:47:29 29.354- 29.394
GOMX 1 21 Dec 21:27:12 21:29:43 16° 268° (W) 21:32:15 467.674
PCSat 21 Dec 21:28:23 21:33:08 30° 49° (NE) 21:37:51 145.827
CUBEBUG 2 21 Dec 21:34:22 21:38:24 47° 261° (W) 21:42:34 437.445
CUSAT 1 21 Dec 21:35:23 21:41:55 29° 273° (W) 21:48:52 437.405
ZACube-1 21 Dec 21:39:04 21:43:12 59° 260° (W) 21:47:26 437.345
TIGRISAT 21 Dec 21:41:25 21:44:48 19° 93° (E) 21:48:11 435.000
VELOX 1 21 Dec 21:45:07 21:49:33 90° 76° (ENE) 21:53:59 145.980
DOVE 4 21 Dec 21:47:02 21:49:02 13° 270° (W) 21:51:03 437.250
ESTCUBE 1 21 Dec 21:52:37 21:56:54 43° 71° (ENE) 22:01:12 437.505/2401.250
BEESAT 3 21 Dec 21:53:22 21:57:31 65° 240° (WSW) 22:01:36 437.485
TISAT 1 21 Dec 21:53:30 21:53:47 10° 61° (ENE) 21:54:04 437.305
DUCHIFAT 1 21 Dec 21:55:20 21:57:54 16° 92° (E) 22:00:28 145.980
50 SAT 21 Dec 21:56:49 22:00:49 79° 258° (WSW) 22:04:54 437.505
DELFI C3 21 Dec 21:57:23 22:00:24 20° 267° (W) 22:03:26 145.870
SPROUT 21 Dec 21:59:59 22:01:24 12° 61° (ENE) 22:02:49 437.525
CINEMA 3 21 Dec 22:01:56 22:04:26 15° 269° (W) 22:06:58 145.822/145.860
FUNcube-1 21 Dec 22:05:59 22:09:40 30° 264° (W) 22:13:27 145.935
AIST 2 21 Dec 22:07:43 22:12:02 74° 56° (NE) 22:16:15 435.215
QB50P2 21 Dec 22:09:13 22:12:37 23° 95° (E) 22:16:01 145.880/145.840
UNISAT 6 21 Dec 22:10:32 22:14:57 39° 98° (E) 22:19:21 437.425
UWE-3 21 Dec 22:10:39 22:13:59 23° 266° (W) 22:17:23 435.000/436.395/437.385
POLYITAN 1 21 Dec 22:18:17 22:22:01 28° 96° (E) 22:25:45 437.675
NANOSAT C BR1 21 Dec 22:19:18 22:23:01 29° 96° (E) 22:26:44 145.865
DX 1 21 Dec 22:24:00 22:25:43 12° 269° (W) 22:27:26 434.975-435.025
AISAT 21 Dec 22:29:51 22:33:43 29° 264° (W) 22:37:36 437.250
CUBEBUG 1 21 Dec 22:30:08 22:34:30 79° 257° (WSW) 22:38:53 437.445
HUMSAT D 21 Dec 22:30:12 22:33:43 27° 265° (W) 22:37:18 437.325/437.525
QB50P1 21 Dec 22:33:43 22:37:46 41° 99° (E) 22:41:49 145.935-145.965
BEESAT 2 21 Dec 22:34:58 22:38:30 27° 246° (WSW) 22:42:01 435.950
DANDE 21 Dec 22:36:12 22:39:23 13° 281° (W) 22:42:40 436.750
SO-50 21 Dec 22:41:11 22:43:32 14° 325° (NW) 22:45:55 436.795
ANTELSAT 21 Dec 22:42:24 22:47:09 83° 103° (ESE) 22:51:53 437.575/2403.000
YUBILEINY 21 Dec 23:01:02 23:09:16 49° 89° (E) 23:17:29 435.215
POPSAT HIP 1 21 Dec 23:02:27 23:06:44 88° 102° (ESE) 23:11:02 437.405
PCSat 21 Dec 23:11:34 23:16:41 44° 248° (WSW) 23:21:47 145.827
SWISSCUBE 21 Dec 23:14:39 23:17:25 16° 61° (ENE) 23:20:11 437.505
ITUPSAT 1 21 Dec 23:15:56 23:18:30 15° 61° (ENE) 23:21:04 437.325
TIGRISAT 21 Dec 23:17:15 23:21:44 45° 289° (WNW) 23:26:13 435.000
BUGSAT 1 21 Dec 23:22:05 23:26:08 68° 285° (WNW) 23:30:11 437.445
TISAT 1 21 Dec 23:24:46 23:28:58 80° 258° (WSW) 23:33:11 437.305
DUCHIFAT 1 21 Dec 23:29:55 23:33:59 46° 288° (WNW) 23:38:04 145.980
ESTCUBE 1 21 Dec 23:30:48 23:33:58 19° 267° (W) 23:37:08 437.505/2401.250
SPROUT 21 Dec 23:32:39 23:36:54 71° 258° (WSW) 23:41:11 437.525
BEESAT 21 Dec 23:38:09 23:41:55 24° 65° (ENE) 23:45:43 436.000
RS-15 21 Dec 23:44:10 23:45:55 10° 266° (W) 23:47:40 29.354- 29.394
AUBIESAT-1 21 Dec 23:44:32 23:47:49 18° 58° (ENE) 23:51:07 437.475
QB50P2 21 Dec 23:44:46 23:48:34 32° 291° (WNW) 23:52:21 145.880/145.840
O/OREOS (USA 219) 21 Dec 23:47:14 23:51:21 38° 106° (ESE) 23:55:28 437.305
UNISAT 6 21 Dec 23:47:47 23:51:30 23° 294° (WNW) 23:55:13 437.425
AIST 2 21 Dec 23:48:46 23:50:00 11° 253° (WSW) 23:51:15 435.215
POLYITAN 1 21 Dec 23:54:19 23:57:52 26° 292° (WNW) 00:01:25 437.675
NANOSAT C BR1 21 Dec 23:55:17 23:58:47 25° 292° (WNW) 00:02:17 145.865
M-CUBED/EXP-1 PRIME 22 Dec 00:09:56 00:14:16 33° 63° (ENE) 00:18:39 437.505
QB50P1 22 Dec 00:10:26 00:13:21 18° 295° (WNW) 00:16:16 145.935-145.965
KKS-1 22 Dec 00:20:43 00:22:37 13° 61° (ENE) 00:24:30 437.445
ANTELSAT 22 Dec 00:21:29 00:23:15 12° 300° (WNW) 00:25:01 437.575/2403.000
SWISSCUBE 22 Dec 00:49:59 00:54:45 64° 258° (WSW) 00:59:32 437.505
Oscar 19 22 Dec 00:50:56 00:55:33 31° 96° (E) 01:00:07 437.125/150
ITUPSAT 1 22 Dec 00:51:02 00:55:49 69° 258° (WSW) 01:00:38 437.325
YUBILEINY 22 Dec 00:58:15 01:06:13 38° 289° (WNW) 01:14:12 435.215
ITAMSAT 1 22 Dec 01:10:49 01:14:13 18° 92° (E) 01:17:37 435.822/435.867
BEESAT 22 Dec 01:15:04 01:19:32 39° 262° (W) 01:24:02 436.000
Gurwin Techsat 1B 22 Dec 01:15:44 01:17:41 12° 88° (E) 01:19:37 435.225
AUBIESAT-1 22 Dec 01:17:29 01:22:16 62° 254° (WSW) 01:27:08 437.475
O/OREOS (USA 219) 22 Dec 01:27:22 01:30:52 22° 304° (WNW) 01:34:23 437.305
M-CUBED/EXP-1 PRIME 22 Dec 01:44:53 01:49:11 31° 259° (W) 01:53:33 437.505
STARS 22 Dec 01:47:19 01:51:39 66° 74° (ENE) 01:56:01 437.465
KKS-1 22 Dec 01:54:16 01:58:40 70° 258° (WSW) 02:03:07 437.445
VERMONT LUNAR 22 Dec 02:03:56 02:06:49 24° 155° (SSE) 02:09:42 437.305
PHONESAT 2.4 22 Dec 02:25:08 02:28:02 23° 154° (SSE) 02:30:57 2401.200-2431.200
